User: anonymous
Location: Caltech
(34.1382°N, 118.1253°W)
Time: 19:01:09
(UTC-07:00)
Language:

Hamsat - Orbit

View from above orbital plane
View from above orbital plane
View from above satellite
View from above satellite

Ground track
Ground track

The orbit data is extracted from the following two-line orbital elements,

1 28650U 05017B   14110.08644474  .00006073  00000-0  70928-3 0  7148
2 28650 097.5611 117.9646 0024740 353.9540 006.1374 14.85267555484603
Epoch (UTC): 20 April 2014 02:04:28
Eccentricity: 0.0024740
inclination: 97.5611°
perigee height: 595 km
apogee height: 630 km
right ascension of ascending node: 117.9646°
argument of perigee: 353.9540°
revolutions per day: 14.85267555
mean anomaly at epoch: 6.1374°
orbit number at epoch: 48460

The dashed part of the orbit path shows where the satellite is in the earth's shadow,  

DLR